Погода в Большом Ляждуре

Россия / Республика Марий Эл     56°49′50″N   49°15′01″E
темп.,
°C
ветер,
м/с
пор.,
м/с
влажн.,
%
обл.,
%
осадки,
мм/ч
давл.,
гПа
погр.,
м
13 мая, чт
чт1300:00+15ююз12675 0.0 102611
03:00+14св22678 0.0 102611
06:00+16в246760 0.0 1026117
09:00+22ююв45455 0.0 1025737
12:00+24ююв573595 0.0 10241746
15:00+25ююв573977 0.0 10231506
18:00+22юв3657100 0.0 1022148
21:00+19юв51462100 0.0 1021335
14 мая, пт
пт1400:00+18ююв5136298 0.0 1021380
03:00+15ююв3107889 0.1 1021213
06:00+17ю497453 0.0 1021284
09:00+21ююз455998 0.0 1021582
12:00+24ююз4651100 0.0 10211418
15:00+24ююз4652100 0.0 10201369
18:00+23ююз24645 0.0 1019107
21:00+18ю338162 0.0 102036
15 мая, сб
сб1500:00+16ю3373100 0.0 101950
03:00+15ююз3575100 0.0 101978
06:00+18ю377199 0.0 1019189
09:00+23ю5848100 0.0 1019477
12:00+26ююз6936100 0.0 1019984
15:00+27ююз61038100 0.0 10181289
18:00+23ю5105092 0.0 1017304
21:00+18ю41361100 0.0 1017251
16 мая, вс
вс1600:00+16ююз4126164 0.0 1017207
03:00+15ю386232 0.0 1017115
06:00+18ююз4135974 0.0 1017330
09:00+24ююз61145100 0.0 1016736
12:00+27ююз7123699 0.0 10161630
15:00+27ююз61037100 0.0 10151999
18:00+24ююз5952100 0.0 1014241
21:00+19юз337210 0.0 101535
17 мая, пн
пн1700:00+16зюз338535 0.0 101647
03:00+15зюз339288 0.0 101750
06:00+18зюз35815 0.0 1017223
09:00+23з35575 0.0 1018941
12:00+25зсз56495 0.0 10181570
15:00+25сз56475 0.0 10181265
18:00+23ссз35585 0.0 1018167
21:00+18ссв2269100 0.1 101911